SR5NLK-1 Weather Reports


time (UTC)temp
F
wind
direction
speed
knots
gust
knots
rain 1hr
in
rain 24hr
in
rain mn
in
humidity
%
barometer
mb
20260509165222 58 22 6.1 9.6 0.00 0.00 0.00 55 1061.6
20260509165121 58 22 7.0 9.6 0.00 0.00 0.00 54 997.8
20260509164722 58 22 3.5 8.7 0.00 0.00 0.00 54 1007.3
20260509164222 57 22 3.5 7.8 0.00 0.00 0.00 54 1033.4
20260509163722 58 22 1.7 7.8 0.00 0.00 0.00 54 1084.7
20260509163222 58 0 7.0 7.0 0.00 0.00 0.00 54 1013.5
20260509162722 58 337 2.6 7.0 0.00 0.00 0.00 54 1039.7
20260509162222 58 22 4.3 6.1 0.00 0.00 0.00 54 1090.9
20260509161821 58 22 4.3 7.8 0.00 0.00 0.00 53 997.8
20260509161722 58 0 1.7 7.8 0.00 0.00 0.00 53 1055.4
20260509161222 58 45 3.5 7.0 0.00 0.00 0.00 53 1036.5
20260509160722 59 0 3.5 10.4 0.00 0.00 0.00 52 914.2
20260509160222 59 22 8.7 8.7 0.00 0.00 0.00 52 965.4
20260509155722 58 0 4.3 10.4 0.00 0.00 0.00 51 1039.7
20260509155223 58 0 2.6 9.6 0.00 0.00 0.00 51 1087.8
20260509154722 58 0 5.2 8.7 0.00 0.00 0.00 51 1033.4
20260509154521 58 337 5.2 8.7 0.00 0.00 0.00 51 1052.2
20260509154222 58 22 2.6 7.8 0.00 0.00 0.00 50 1049.1
20260509153722 58 337 2.6 12.2 0.00 0.00 0.00 50 1007.3
20260509153223 59 0 7.0 9.6 0.00 0.00 0.00 50 997.9
20260509152722 59 337 3.5 11.3 0.00 0.00 0.00 49 1036.5
20260509152222 60 337 8.7 13.0 0.00 0.00 0.00 49 994.7
20260509151722 60 22 10.4 10.4 0.00 0.00 0.00 49 1072.1
20260509151221 60 337 4.3 10.4 0.00 0.00 0.00 48 1069.0
20260509150722 60 315 7.0 13.0 0.00 0.00 0.00 49 1059.5
20260509150222 60 315 13.0 14.8 0.00 0.00 0.00 49 952.9
20260509145722 60 45 4.3 11.3 0.00 0.00 0.00 51 1078.4
20260509145222 60 270 4.3 11.3 0.00 0.00 0.00 52 1075.2
20260509144722 59 270 0.9 9.6 0.00 0.00 0.00 55 1075.3
20260509144222 58 315 8.7 8.7 0.00 0.00 0.00 57 1087.8
20260509143921 58 315 3.5 7.0 0.00 0.00 0.00 57 1084.7
20260509143722 58 0 1.7 7.0 0.00 0.00 0.00 57 1039.7
20260509143222 57 22 3.5 5.2 0.00 0.00 0.00 57 1042.8
20260509142722 57 22 1.7 7.8 0.00 0.00 0.00 56 1078.4
20260509142222 57 22 3.5 8.7 0.00 0.00 0.00 56 1033.4
20260509141732 58 67 2.6 7.0 0.00 0.00 0.00 56 1042.1
20260509141722 58 67 2.6 7.0 0.00 0.00 0.00 56 1042.8
20260509141222 58 0 1.7 6.1 0.00 0.00 0.00 55 1046.0
20260509140722 58 0 5.2 9.6 0.00 0.00 0.00 54 1027.1
20260509140622 58 337 6.1 9.6 0.00 0.00 0.00 54 1065.8
20260509140222 58 292 5.2 7.8 0.00 0.00 0.00 54 1068.9
20260509135722 58 0 1.7 5.2 0.00 0.00 0.00 54 1069.0
20260509135222 58 337 1.7 7.8 0.00 0.00 0.00 53 1059.5
20260509134722 59 337 7.0 10.4 0.00 0.00 0.00 52 1062.7
20260509134223 60 315 7.8 9.6 0.00 0.00 0.00 51 1021.9
20260509133723 60 270 7.8 10.4 0.00 0.00 0.00 50 1028.6
20260509133322 61 292 6.1 10.4 0.00 0.00 0.00 51 1032.3
20260509133223 61 270 7.0 8.7 0.00 0.00 0.00 51 1016.6
20260509132723 61 270 8.7 8.7 0.00 0.00 0.00 50 1016.9
20260509132223 61 0 4.3 6.1 0.00 0.00 0.00 50 1010.8
20260509131723 61 270 6.1 9.6 0.00 0.00 0.00 50 1018.8
20260509131223 61 292 5.2 7.8 0.00 0.00 0.00 50 1030.8
20260509130723 61 337 6.1 11.3 0.00 0.00 0.00 50 1032.8
20260509130223 61 292 0.9 7.8 0.00 0.00 0.00 50 1038.3
20260509130022 62 270 2.6 7.8 0.00 0.00 0.00 49 1047.4
20260509125723 62 292 2.6 8.7 0.00 0.00 0.00 49 1028.0
20260509125223 62 315 0.9 8.7 0.00 0.00 0.00 50 1044.2
20260509124723 62 337 2.6 7.0 0.00 0.00 0.00 51 1029.6
20260509124223 61 270 3.5 8.7 0.00 0.00 0.00 50 1034.8
20260509123723 62 315 5.2 9.6 0.00 0.00 0.00 50 1069.7
20260509123223 62 270 2.6 3.5 0.00 0.00 0.00 53 1062.6
20260509122722 61 292 0.0 2.6 0.00 0.00 0.00 53 1065.8
20260509122223 61 337 1.7 2.6 0.00 0.00 0.00 53 1056.3
20260509121723 60 0 1.7 5.2 0.00 0.00 0.00 53 1048.9
20260509121223 60 0 2.6 5.2 0.00 0.00 0.00 53 1022.2
20260509120723 60 337 2.6 7.0 0.00 0.00 0.00 52 1043.6
20260509120223 61 0 2.6 5.2 0.00 0.00 0.00 52 1027.2
20260509115723 60 315 0.0 7.8 0.00 0.00 0.00 52 1031.3
20260509115422 60 22 2.6 7.0 0.00 0.00 0.00 52 1013.3
20260509115223 60 22 5.2 7.0 0.00 0.00 0.00 52 1052.3
20260509114723 60 337 0.0 8.7 0.00 0.00 0.00 52 1013.3
20260509114223 60 292 8.7 8.7 0.00 0.00 0.00 52 1023.2
20260509113723 60 0 7.0 7.0 0.00 0.00 0.00 53 1003.1
20260509113223 60 315 4.3 8.7 0.00 0.00 0.00 54 1042.8
20260509112723 59 0 2.6 7.0 0.00 0.00 0.00 55 1038.3
20260509112223 58 337 1.7 7.8 0.00 0.00 0.00 54 1036.1
20260509112122 59 0 5.2 7.8 0.00 0.00 0.00 54 1018.8
20260509111723 59 315 1.7 10.4 0.00 0.00 0.00 53 1028.9
20260509111223 60 292 8.7 9.6 0.00 0.00 0.00 52 1059.6
20260509110723 61 0 3.5 9.6 0.00 0.00 0.00 52 1072.1
20260509110223 61 0 2.6 7.0 0.00 0.00 0.00 53 1062.7
20260509105723 61 22 3.5 6.1 0.00 0.00 0.00 53 1060.0
20260509105223 60 0 7.8 7.8 0.00 0.00 0.00 55 1053.2
20260509104822 59 0 2.6 7.0 0.00 0.00 0.00 55 1042.0
20260509104723 59 0 6.1 7.0 0.00 0.00 0.00 56 1079.3
20260509104223 58 337 5.2 7.8 0.00 0.00 0.00 58 1040.6
20260509103723 57 337 3.5 7.8 0.00 0.00 0.00 60 1043.8
20260509103223 56 22 7.8 7.8 0.00 0.00 0.00 60 1043.7
20260509102723 55 0 3.5 8.7 0.00 0.00 0.00 61 1028.0
20260509102223 55 337 8.7 11.3 0.00 0.00 0.00 60 1044.2
20260509101723 55 22 7.0 12.2 0.00 0.00 0.00 59 1038.0
20260509101522 55 337 8.7 12.2 0.00 0.00 0.00 58 1012.0
20260509101223 55 0 8.7 11.3 0.00 0.00 0.00 58 1078.4
20260509100723 56 22 5.2 9.6 0.00 0.00 0.00 57 1066.1
20260509100223 57 0 7.0 8.7 0.00 0.00 0.00 56 1068.9
20260509095723 58 22 8.7 8.7 0.00 0.00 0.00 57 1067.5
20260509095223 57 0 6.1 12.2 0.00 0.00 0.00 57 1042.8
20260509094723 56 22 5.2 13.9 0.00 0.00 0.00 57 1078.4
20260509094222 56 45 5.2 14.8 0.00 0.00 0.00 56 1065.8
20260509093723 57 0 4.3 13.0 0.00 0.00 0.00 56 1090.9
20260509093223 58 45 7.8 13.0 0.00 0.00 0.00 55 1090.9
20260509092723 58 0 3.5 13.0 0.00 0.00 0.00 56 1090.9
20260509092223 58 45 6.1 13.0 0.00 0.00 0.00 57 1084.6
20260509091723 57 22 5.2 13.9 0.00 0.00 0.00 57 1052.2
20260509091223 57 22 4.3 13.9 0.00 0.00 0.00 58 1055.3
20260509090922 57 0 8.7 13.9 0.00 0.00 0.00 59 997.9
20260509090723 57 0 7.0 11.3 0.00 0.00 0.00 59 1094.1
20260509090223 57 135 1.7 11.3 0.00 0.00 0.00 59 1042.8
20260509085723 57 0 4.3 13.9 0.00 0.00 0.00 61 1078.4
20260509085223 56 22 1.7 7.8 0.00 0.00 0.00 61 1024.0
20260509084723 56 0 7.0 12.2 0.00 0.00 0.00 62 1097.2
20260509084223 56 225 1.7 9.6 0.00 0.00 0.00 62 1030.1
20260509083723 55 22 5.2 13.0 0.00 0.00 0.00 64 1084.7
20260509083622 55 22 10.4 13.0 0.00 0.00 0.00 64 1075.2
20260509083223 54 337 7.0 13.0 0.00 0.00 0.00 65 1087.8
20260509082723 52 337 7.8 8.7 0.00 0.00 0.00 69 1051.2
20260509082223 51 0 8.7 10.4 0.00 0.00 0.00 70 1049.1
20260509081723 51 337 7.0 10.4 0.00 0.00 0.00 69 1008.1
20260509081223 52 22 7.0 13.9 0.00 0.00 0.00 68 1087.8
20260509080733 52 22 10.4 11.3 0.00 0.00 0.00 68 976.0
20260509080723 52 22 11.3 11.3 0.00 0.00 0.00 68 976.0
20260509080322 52 337 2.6 9.6 0.00 0.00 0.00 68 1052.1
20260509080223 52 337 6.1 9.6 0.00 0.00 0.00 68 999.5
20260509075723 52 337 4.3 12.2 0.00 0.00 0.00 68 1056.9
20260509075223 52 0 4.3 6.1 0.00 0.00 0.00 68 1001.0
20260509074723 52 337 3.5 10.4 0.00 0.00 0.00 67 1016.7
20260509074223 53 0 4.3 10.4 0.00 0.00 0.00 67 1058.5
20260509073723 54 0 7.0 11.3 0.00 0.00 0.00 67 1010.4
20260509073223 54 22 6.1 10.4 0.00 0.00 0.00 67 1052.2
20260509073022 55 0 5.2 7.8 0.00 0.00 0.00 67 1056.3
20260509072723 55 45 5.2 7.8 0.00 0.00 0.00 68 1045.9
20260509072223 54 337 2.6 8.7 0.00 0.00 0.00 70 1084.6
20260509071724 53 22 5.2 8.7 0.00 0.00 0.00 71 1010.4
20260509071223 52 337 5.2 10.4 0.00 0.00 0.00 71 976.4
20260509070723 52 337 3.5 8.7 0.00 0.00 0.00 72 1007.2
20260509070223 52 315 5.2 11.3 0.00 0.00 0.00 73 994.5
20260509065722 51 0 6.1 10.4 0.00 0.00 0.00 73 1050.7
20260509065223 51 22 4.3 10.4 0.00 0.00 0.00 73 1046.0
20260509064723 51 337 8.7 10.4 0.00 0.00 0.00 73 1055.4
20260509064223 51 337 7.0 11.3 0.00 0.00 0.00 72 1055.4
20260509063723 51 45 3.5 10.4 0.00 0.00 0.00 73 968.5
20260509063223 51 0 7.0 9.6 0.00 0.00 0.00 73 1019.8
20260509062723 51 0 8.7 10.4 0.00 0.00 0.00 73 1000.0
20260509062422 51 0 5.2 10.4 0.00 0.00 0.00 73 1010.4
20260509062223 52 337 7.8 10.4 0.00 0.00 0.00 73 1042.8
20260509061723 52 292 6.1 6.1 0.00 0.00 0.00 73 971.5
20260509061223 52 45 3.5 9.6 0.00 0.00 0.00 73 1045.9
20260509060723 52 0 8.7 12.2 0.00 0.00 0.00 74 1016.7
20260509060223 53 315 3.5 7.8 0.00 0.00 0.00 73 1039.7
20260509055723 53 0 2.6 12.2 0.00 0.00 0.00 72 1007.3
20260509055223 54 337 5.2 9.6 0.00 0.00 0.00 74 1010.4
20260509055122 54 22 5.2 9.6 0.00 0.00 0.00 75 952.9
20260509054723 54 0 7.0 8.7 0.00 0.00 0.00 77 1022.7
20260509054223 53 337 5.2 7.8 0.00 0.00 0.00 80 1016.7
20260509053723 52 22 4.3 7.8 0.00 0.00 0.00 82 994.7
20260509053223 51 292 1.7 6.1 0.00 0.00 0.00 83 1042.7
20260509052723 50 22 6.1 7.0 0.00 0.00 0.00 84 1023.4
20260509052223 50 270 0.9 3.5 0.00 0.00 0.00 85 1015.0
20260509051822 49 45 1.7 7.0 0.00 0.00 0.00 85 1049.0
20260509051723 49 337 0.9 7.0 0.00 0.00 0.00 85 1004.1
20260509051223 49 0 3.5 8.7 0.00 0.00 0.00 85 1064.8
20260509050723 49 292 6.1 7.8 0.00 0.00 0.00 85 1094.1
20260509050223 49 22 2.6 9.6 0.00 0.00 0.00 86 1032.2
20260509045723 49 315 6.1 7.0 0.00 0.00 0.00 86 1042.8
20260509045223 49 292 7.0 7.8 0.00 0.00 0.00 86 994.7
20260509044724 49 337 4.3 7.0 0.00 0.00 0.00 87 1004.1
20260509044523 49 22 1.7 6.1 0.00 0.00 0.00 87 1064.7
20260509044223 49 0 6.1 6.1 0.00 0.00 0.00 87 1010.4
20260509043724 48 0 3.5 5.2 0.00 0.00 0.00 87 1106.6
20260509043223 48 315 1.7 6.1 0.00 0.00 0.00 88 917.3
20260509042723 48 337 1.7 6.1 0.00 0.00 0.00 88 1004.1
20260509042223 48 337 3.5 6.1 0.00 0.00 0.00 88 1064.7
20260509041724 48 0 3.5 5.2 0.00 0.00 0.00 88 1010.4
20260509041223 48 337 3.5 7.8 0.00 0.00 0.00 89 1010.4
20260509041006 48 337 2.6 3.5 0.00 0.00 0.00 89 1010.4
20260509040724 48 337 1.7 4.3 0.00 0.00 0.00 89 1097.2
20260509040223 48 337 4.3 5.2 0.00 0.00 0.00 89 1055.4
20260509035724 48 337 2.6 3.5 0.00 0.00 0.00 89 1010.4
20260509035224 48 0 3.5 4.3 0.00 0.00 0.00 89 968.6
20260509034724 48 315 4.3 5.2 0.00 0.00 0.00 89 1098.2
20260509034224 48 315 2.6 4.3 0.00 0.00 0.00 88 1100.3
20260509033923 48 315 3.5 5.2 0.00 0.00 0.00 88 1061.6
20260509033724 48 315 1.7 5.2 0.00 0.00 0.00 88 1045.9
20260509033224 48 315 3.5 4.3 0.00 0.00 0.00 88 965.4
20260509032732 48 337 2.6 3.5 0.00 0.00 0.00 88 1052.2
20260509032724 48 337 2.6 3.5 0.00 0.00 0.00 88 1052.2
20260509032234 48 292 1.7 3.5 0.40 0.00 0.00 88 1049.1
20260509032224 48 292 1.7 3.5 0.00 0.00 0.00 88 1049.1
20260509031724 48 315 0.9 5.2 0.00 0.00 0.00 88 991.6
20260509031224 48 270 1.7 3.5 0.00 0.00 0.00 88 875.5
20260509030724 48 315 1.7 2.6 0.00 0.00 0.00 88 1081.5
20260509030623 48 315 1.7 2.6 0.00 0.00 0.00 88 985.3
20260509030224 48 270 1.7 3.5 0.00 0.00 0.00 88 1013.5
20260509025724 48 315 2.6 5.2 0.00 0.00 0.00 87 1030.3
20260509025224 48 292 1.7 5.2 0.00 0.00 0.00 87 1078.4
20260509024724 48 315 1.7 5.2 0.00 0.00 0.00 87 1039.7
20260509024224 48 292 1.7 3.5 0.00 0.00 0.00 87 1046.0
20260509023724 48 292 3.5 3.5 0.00 0.00 0.00 87 997.9
20260509023323 48 315 3.5 3.5 0.00 0.00 0.00 87 1007.3
20260509023224 48 292 1.7 3.5 0.00 0.00 0.00 87 971.6
20260509022724 48 292 3.5 4.3 0.00 0.00 0.00 87 1023.9
20260509022224 48 270 1.7 3.5 0.00 0.00 0.00 87 968.6
20260509021724 48 315 0.0 4.3 0.00 0.00 0.00 87 1030.2
20260509021224 48 292 3.5 4.3 0.00 0.00 0.00 87 923.5
20260509020724 48 292 0.9 2.6 0.00 0.00 0.00 87 1010.4
20260509020224 48 0 0.9 2.6 0.00 0.00 0.00 87 1004.1
20260509020023 48 270 1.7 5.2 0.00 0.00 0.00 87 955.2
20260509015724 48 292 2.6 5.2 0.00 0.00 0.00 87 1039.7
20260509015224 48 0 0.9 3.5 0.00 0.00 0.00 87 1049.1
20260509014724 48 270 3.5 4.3 0.00 0.00 0.00 87 956.0
20260509014224 48 270 2.6 4.3 0.00 0.00 0.00 87 923.6
20260509013724 48 292 2.6 3.5 0.00 0.00 0.00 87 923.6
20260509013224 48 270 1.7 3.5 0.00 0.00 0.00 87 1087.8
20260509012723 48 270 0.0 3.5 0.00 0.00 0.00 87 920.5
20260509012224 48 292 1.7 3.5 0.00 0.00 0.00 87 1097.2
20260509011724 48 292 3.5 3.5 0.00 0.00 0.00 87 1049.1
20260509011224 48 292 0.9 3.5 0.00 0.00 0.00 86 1039.6
20260509010724 48 315 3.5 3.5 0.00 0.00 0.00 86 985.3
20260509010224 48 270 0.9 3.5 0.00 0.00 0.00 86 1055.4
20260509005724 48 315 1.7 3.5 0.00 0.00 0.00 86 1081.5
20260509005423 48 315 2.6 2.6 0.00 0.00 0.00 86 1072.1
20260509005224 48 337 0.9 4.3 0.00 0.00 0.00 86 1001.0
20260509004724 48 292 2.6 2.6 0.00 0.00 0.00 86 1010.4
20260509004224 48 292 1.7 2.6 0.00 0.00 0.00 86 1084.7
20260509003724 48 270 0.9 2.6 0.00 0.00 0.00 86 1007.3
20260509003224 48 270 0.9 4.3 0.00 0.00 0.00 86 1039.7
20260509002724 48 292 4.3 4.3 0.00 0.00 0.00 86 1010.4
20260509002224 48 315 1.7 4.3 0.00 0.00 0.00 85 1036.5
20260509002123 48 270 1.7 4.3 0.00 0.00 0.00 85 1039.6
20260509001724 48 337 1.7 5.2 0.00 0.00 0.00 86 1046.0
20260509001224 48 292 2.6 4.3 0.00 0.00 0.00 85 1036.6
20260509000725 48 292 1.7 3.5 0.00 0.00 0.00 85 1004.1
20260509000226 48 0 1.7 3.5 0.00 0.00 0.00 85 1016.6
20260508235724 48 292 2.6 4.3 0.00 0.00 0.00 85 1052.2
20260508235224 48 337 2.6 5.2 0.00 0.00 0.00 85 1078.3
20260508234823 48 292 3.5 6.1 0.00 0.00 0.00 85 1094.1
20260508234724 48 315 3.5 6.1 0.00 0.00 0.00 85 991.6
20260508234224 48 315 5.2 5.2 0.00 0.00 0.00 85 1042.8
20260508233724 48 292 1.7 5.2 0.00 0.00 0.00 84 1039.7
20260508233224 48 315 3.5 3.5 0.00 0.00 0.00 84 1036.5
20260508232724 48 315 2.6 4.3 0.00 0.00 0.00 84 1087.8
20260508232427 48 315 0.9 3.5 0.00 0.00 0.00 84 1084.6
20260508232224 48 315 0.9 3.5 0.00 0.00 0.00 84 1084.6
20260508231724 48 270 0.0 4.3 0.00 0.00 0.00 84 1042.8
20260508231224 48 315 4.3 4.3 0.00 0.00 0.00 84 1084.7
20260508230724 48 315 3.5 4.3 0.00 0.00 0.00 84 1058.4
20260508230224 48 315 2.6 2.6 0.00 0.00 0.00 84 946.3
20260508225724 48 292 1.7 3.5 0.00 0.00 0.00 84 1001.0
20260508225224 48 315 1.7 2.6 0.00 0.00 0.00 84 1010.4
20260508224724 48 292 1.7 2.6 0.00 0.00 0.00 84 1049.1
20260508224223 48 315 2.6 3.5 0.00 0.00 0.00 84 997.9
20260508223724 48 292 3.5 3.5 0.00 0.00 0.00 84 1081.5
20260508223224 48 292 2.6 5.2 0.00 0.00 0.00 84 971.7
20260508222724 48 315 0.9 2.6 0.00 0.00 0.00 84 1039.7
20260508222224 48 0 0.9 3.5 0.00 0.00 0.00 84 1055.4
20260508221724 48 292 1.7 4.3 0.00 0.00 0.00 84 1097.2
20260508221224 48 315 3.5 3.5 0.00 0.00 0.00 84 1039.7
20260508220923 48 315 1.7 3.5 0.00 0.00 0.00 84 1049.1
20260508220724 48 337 3.5 3.5 0.00 0.00 0.00 84 1094.0
20260508220224 48 0 1.7 4.3 0.00 0.00 0.00 83 1049.1
20260508215724 48 292 3.5 6.1 0.00 0.00 0.00 83 1097.2
20260508215224 48 135 0.0 5.2 0.00 0.00 0.00 83 965.4
20260508214725 48 292 4.3 6.1 0.00 0.00 0.00 83 953.2
20260508214224 48 337 1.7 6.1 0.00 0.00 0.00 83 1081.5
20260508213724 48 315 4.3 7.8 0.00 0.00 0.00 83 1036.6
20260508213623 48 292 4.3 7.8 0.00 0.00 0.00 83 1036.6
20260508213224 48 337 2.6 4.3 0.00 0.00 0.00 83 1008.4
20260508212724 49 292 1.7 5.2 0.00 0.00 0.00 83 1090.9
20260508212224 49 315 3.5 5.2 0.00 0.00 0.00 83 1013.5
20260508211724 49 292 4.3 6.1 0.00 0.00 0.00 83 1069.0
20260508211224 49 0 3.5 4.3 0.00 0.00 0.00 83 1001.0
20260508210724 49 0 1.7 5.2 0.00 0.00 0.00 82 1027.9
20260508210323 49 337 0.9 4.3 0.00 0.00 0.00 82 1058.5
20260508210224 49 315 2.6 4.3 0.00 0.00 0.00 82 1016.6
20260508205724 49 22 2.6 5.2 0.00 0.00 0.00 82 1049.1
20260508205225 49 337 2.6 5.2 0.00 0.00 0.00 82 1007.2
20260508204724 49 337 4.3 7.0 0.00 0.00 0.00 82 1046.0
20260508204224 49 292 4.3 5.2 0.00 0.00 0.00 82 965.2
20260508203724 49 0 4.3 4.3 0.00 0.00 0.00 82 1036.6
20260508203224 49 315 0.9 4.3 0.00 0.00 0.00 81 1052.2
20260508203023 49 337 3.5 4.3 0.00 0.00 0.00 81 1094.0
20260508202724 49 0 2.6 4.3 0.00 0.00 0.00 81 1049.1
20260508202224 49 270 0.0 5.2 0.00 0.00 0.00 81 997.9
20260508201724 49 315 3.5 5.2 0.00 0.00 0.00 82 1004.1
20260508201224 49 0 1.7 4.3 0.00 0.00 0.00 82 1030.3
20260508200724 49 337 1.7 4.3 0.00 0.00 0.00 82 1075.3
20260508200224 49 22 1.7 4.3 0.00 0.00 0.00 82 1075.3
20260508195723 49 292 1.7 4.3 0.00 0.00 0.00 82 1042.8
20260508195224 49 292 0.0 6.1 0.00 0.00 0.00 82 1030.2
20260508194724 49 292 6.1 6.1 0.00 0.00 0.00 82 980.9
20260508194224 49 292 3.5 4.3 0.00 0.00 0.00 82 1024.0
20260508193724 49 315 0.9 4.3 0.00 0.00 0.00 82 1065.8
20260508193224 50 337 2.6 4.3 0.00 0.00 0.00 82 1087.8
20260508192724 49 315 2.6 2.6 0.00 0.00 0.00 82 1042.8
20260508192423 50 0 0.0 6.1 0.00 0.00 0.00 82 1049.9
20260508192224 50 0 0.0 6.1 0.00 0.00 0.00 82 1081.5
20260508191724 50 337 0.0 4.3 0.00 0.00 0.00 82 1007.3
20260508191224 50 22 1.7 5.2 0.00 0.00 0.00 82 1087.8
20260508190724 50 337 5.2 5.2 0.00 0.00 0.00 82 1078.3
20260508190224 50 22 1.7 5.2 0.00 0.00 0.00 82 988.4
20260508185724 50 0 4.3 4.3 0.00 0.00 0.00 83 1072.3
20260508185224 50 315 1.7 4.3 0.00 0.00 0.00 83 1084.7
20260508185124 50 0 2.6 4.3 0.00 0.00 0.00 83 1094.1
20260508184725 50 337 3.5 4.3 0.00 0.00 0.00 83 1081.5
20260508184224 50 45 2.6 5.2 0.00 0.00 0.00 83 1072.1
20260508183724 50 270 0.0 2.6 0.00 0.00 0.00 83 965.4
20260508183225 50 292 0.9 4.3 0.00 0.00 0.00 83 1052.2
20260508182725 50 292 4.3 4.3 0.00 0.00 0.00 83 1087.8
20260508182225 50 292 2.6 3.5 0.00 0.00 0.00 83 1078.4
20260508181824 50 292 0.9 1.7 0.00 0.00 0.00 83 1078.6
20260508181725 50 270 0.9 1.7 0.00 0.00 0.00 83 1044.5
20260508181225 50 315 1.7 3.5 0.00 0.00 0.00 83 1036.5
20260508180725 50 292 1.7 2.6 0.00 0.00 0.00 83 1065.8
20260508180225 50 315 2.6 2.6 0.00 0.00 0.00 82 1028.1
20260508175725 50 292 1.7 2.6 0.00 0.00 0.00 82 1053.4
20260508175225 50 270 0.9 12.2 0.00 0.00 0.00 82 1063.3
20260508174725 50 292 2.6 5.2 0.00 0.00 0.00 82 1036.6
20260508174524 50 315 4.3 5.2 0.00 0.00 0.00 82 1043.8
20260508174225 50 0 1.7 3.5 0.00 0.00 0.00 82 1075.6
20260508173725 50 337 1.7 3.5 0.00 0.00 0.00 82 1069.2
20260508173225 50 337 1.7 4.3 0.00 0.00 0.00 82 1048.1
20260508172725 50 292 1.7 1.7 0.00 0.00 0.00 83 1046.9
20260508172225 50 337 1.7 2.6 0.00 0.00 0.00 83 1041.1
20260508171725 50 315 1.7 3.5 0.00 0.00 0.00 83 1067.0
20260508171224 50 22 1.7 4.3 0.00 0.00 0.00 83 1053.8
20260508170725 50 315 1.7 5.2 0.00 0.00 0.00 83 1065.7
20260508170225 50 0 2.6 4.3 0.00 0.00 0.00 83 1072.1
20260508165725 50 22 2.6 5.2 0.00 0.00 0.00 83 997.1